Home > Weather > Drummondville > Past weeks

Flag for Canada Weather for the Past 2 Weeks in Drummondville, Quebec, Canada

Now
58 °F

Refreshingly cool.


Feels Like: 56 °F
Forecast: 41 / 61 °F
Wind: 10 mph from Northeast

Location: Nicolet

Current Time: May 5, 2016 at 2:14:47 PM

Latest Report: May 5, 2016 at 1:00 PM


Visibility: N/A

Pressure: 29.88 "Hg

Humidity: 47%

Dew Point: 38 °F

Location of DrummondvilleLocation

Historic Weather in Drummondville — Graph

°F

Drummondville Temperature Yesterday

Maximum temperature yesterday: 59 °F (at 6:00 PM)
Minimum temperature yesterday: 40 °F (at 4:00 AM)
Average temperature yesterday: 49 °F

High & Low Weather Summary for the Past Weeks

 TemperatureHumidityPressure
High67 °F (Apr 21, 5:00 PM)100% (Apr 22, 12:00 PM)30.31 "Hg (Apr 22, 12:00 PM)
Low26 °F (Apr 27, 6:00 AM)15% (Apr 21, 3:00 PM)29.75 "Hg (Apr 22, 1:00 PM)
Average43 °F52%30.02 "Hg
* Reported Apr 20 1:00 PM — May 5 1:00 PM, Drummondville, Weather by CustomWeather, © 2016

Note: Actual official high and low records may vary slightly from our data, if they occured in-between our weather recording intervals... More about our weather records

Advertising

Drummondville Weather History for the Previous 24 Hours

Scroll right to see more
 ConditionsComfort  
Time TempWeatherWind HumidityBarometerVisibility
1:00 PM
Thu, May 5
58 °FRefreshingly cool.10 mph47%29.88 "HgN/A
12:00 PM57 °FRefreshingly cool.13 mph52%29.90 "HgN/A
11:00 AM55 °FRefreshingly cool.10 mph59%29.91 "HgN/A
10:00 AM54 °FCool.12 mph59%29.91 "HgN/A
9:00 AM51 °FCool.10 mph65%29.90 "HgN/A
8:00 AM47 °FCool.10 mph75%29.90 "HgN/A
7:00 AM44 °FQuite cool.8 mph83%29.89 "HgN/A
6:00 AM42 °FQuite cool.7 mph86%29.88 "HgN/A
5:00 AM42 °FQuite cool.6 mph87%29.88 "HgN/A
4:00 AM43 °FQuite cool.8 mph82%29.87 "HgN/A
3:00 AM43 °FQuite cool.7 mph81%29.88 "HgN/A
2:00 AM44 °FQuite cool.6 mph79%29.88 "HgN/A
1:00 AM44 °FQuite cool.8 mph81%29.87 "HgN/A
12:00 AM47 °FCool.7 mph72%29.88 "HgN/A
11:00 PM
Wed, May 4
49 °FCool.7 mph68%29.89 "HgN/A
10:00 PM49 °FCool.5 mph67%29.88 "HgN/A
9:00 PM51 °FCool.6 mph63%29.87 "HgN/A
8:00 PM54 °FCool.7 mph59%29.85 "HgN/A
7:00 PM56 °FRefreshingly cool.7 mph55%29.84 "HgN/A
6:00 PM59 °FRefreshingly cool.6 mph47%29.83 "HgN/A
5:00 PM58 °FRefreshingly cool.7 mph48%29.83 "HgN/A
4:00 PM58 °FRefreshingly cool.7 mph48%29.83 "HgN/A
3:00 PM58 °FRefreshingly cool.5 mph53%29.85 "HgN/A
2:00 PM57 °FRefreshingly cool.9 mph49%29.86 "HgN/A
Weather by CustomWeather, © 2016

See weather overviewHow to use our weather pages